Regional Weather Roundup
Issued by NWS

Home | Current Version | Previous Version | Text Only | Print | Product List | Glossary Off
Versions: 1 2 3 4 5 6 7 8 9 10 11 12 13 14 15 16 17 18 19 20 21 22 23 24 25 26 27 28 29 30 31 32 33 34 35 36 37 38 39 40 41 42 43 44 45 46 47 48 49 50

000
ASUS45 KCYS 311410
RWRWY

WYOMING REGIONAL WEATHER ROUNDUP
NATIONAL WEATHER SERVICE CHEYENNE WY
800 AM MDT MON AUG 31 2015

NOTE:  "FAIR" INDICATES FEW OR NO CLOUDS BELOW 12,000 FEET
WITH NO SIGNIFICANT WEATHER AND/OR OBSTRUCTIONS TO VISIBILITY.

WYZ001-311500-
YELLOWSTONE NATIONAL PARK

CITY           SKY/WX    TMP DP  RH WIND       PRES   REMARKS
LK YELLOWSTONE   N/A     38  27  64 CALM      30.25R
W YELLOWSTONE  NOT AVBL

$$
WYZ002>013-054>058-071-098>099-311500-
NORTHERN WYOMING

CITY           SKY/WX    TMP DP  RH WIND       PRES   REMARKS
JACKSON        FAIR      48  30  49 MISG      30.19R
CODY           FAIR      52  37  58 CALM      30.05R
GREYBULL       FAIR      58  41  53 N3        30.01R
WORLAND        FAIR      60  42  51 CALM      30.01R
SHERIDAN       FAIR      56  43  61 S6        30.03R
BUFFALO        FAIR      54  43  66 S6        30.10R
GILLETTE       FAIR      57  48  72 N8        30.05R
HULETT         FAIR      55  50  82 SE5       30.05S
NEWCASTLE      FAIR      61  50  67 NW9       30.01R

$$
WYZ014>020-022>026-101>103-311500-
CENTRAL WYOMING

CITY           SKY/WX    TMP DP  RH WIND       PRES   REMARKS
BIG PINEY      FAIR      45  25  45 N5        30.25R
PINEDALE       FAIR      41  32  70 CALM      30.26R
DUBOIS         FAIR      45  21  39 NW14      30.18S
LANDER         FAIR      57  36  45 SE3       30.07S
RIVERTON       FAIR      63  27  25 SW7       30.09R
CASPER         FAIR      63  44  50 N13       30.10R
DOUGLAS        FAIR      69  45  41 NW10      30.07R

$$
WYZ021-027>030-104>119-311500-
SOUTHERN WYOMING

CITY           SKY/WX    TMP DP  RH WIND       PRES   REMARKS
EVANSTON       FAIR      51  40  65 MISG      30.24R
KEMMERER       FAIR      50  28  43 NW8       30.26R
FORT BRIDGER   SUNNY     59  46  63 CALM      30.25F
ROCK SPRINGS   FAIR      56  49  77 CALM      30.22R
DIXON          FAIR      56  52  85 E3        30.25F
RAWLINS        FAIR      59  44  57 NW8       30.22R
SARATOGA       FAIR      57  50  77 SE14      30.24R
LARAMIE        FAIR      58  48  69 MISG      30.21R
CHEYENNE       PTSUNNY   66  47  50 W10       30.14R
TORRINGTON     CLOUDY    71  53  52 NW8       29.98R
PINE BLUFFS    PTSUNNY   70  48  46 NW6       30.07S

$$



USA.gov is the U.S. government's official web portal to all federal, state and local government web resources and services.